Location: Poughquag
(41.6090°N, 73.6820°W)
Time: 13:58:58
(UTC-04:00)

Altair - Pass Details

Date: 30 May 2020
Orbit: 1501 x 1683 km, 47.2° (Epoch: 05 July)

Event Time Altitude Azimuth Distance (km) Brightness Sun altitude
Rises 03:15:36 0° 288° (WNW) 4,922 10.0 -18.4°
Reaches altitude 10° 03:18:48 10° 290° (WNW) 3,942 9.5 -18.1°
Maximum altitude 03:28:59 71° 15° (NNE) 1,757 7.9 -16.9°
Drops below altitude 10° 03:39:04 10° 99° (E) 3,904 10.0 -15.7°
Sets 03:42:12 0° 102° (ESE) 4,872 10.5 -15.4°
